Location: Unspecified
(52.0000°N, 4.4000°E)
Time: 23:56:13
(UTC+00:00)

Cosmos 1908 - Pass Details

Date: 14 May 2025
Orbit: 405 x 413 km, 82.5° (Epoch: 15 June)

Event Time Altitude Azimuth Distance (km) Brightness Sun altitude
Rises 23:51:17 0° 344° (NNW) 2,390 7.9 -19.1°
Reaches altitude 10° 23:53:22 10° 339° (NNW) 1,517 6.5 -19.0°
Maximum altitude 23:56:33 47° 265° (W) 568 3.3 -19.0°
Enters shadow 23:56:39 47° 258° (WSW) 570 3.2 -19.0°
